Aérodrome :
LOGIN :

S'inscrire | Disclaimer

   EN    FR    IT 

 










Légende :    VFR   VFR Marginal   IFR   IFR Intensif   IFR Très Intensif
Visi : 
Plafond : 
>= 8 km
>= 3000ft
5 à 8 km
1000 à 3000 ft
1500m à 5 km
500 à 1000 ft
800 à 1500m
200 à 500 ft
< 800m
< 200 ft
Symboles :   Orages  Brouillard  Fortes neiges  Fortes précipitations  Vent > 20 kt
SIGMETs :   Divers  Orages  Givrage  Turbulence  Onde Orograph.  Cendres Volcan.






- Altitude de l'aérodrome : 382 ft
- Code IATA : CAI


HECA - Cairo Int.

DERNIER METAR :
  • 201400Z 36014KT CAVOK 33/17 Q1008 NOSIG

METARs EXPIRÉS :
  • 201330Z 01014KT CAVOK 34/17 Q1008 NOSIG
  • 201300Z 01014KT CAVOK 34/17 Q1008 NOSIG
  • 201230Z 36014KT CAVOK 34/17 Q1008 NOSIG
  • 201200Z 01013KT CAVOK 33/18 Q1009 NOSIG
  • 201130Z 36014KT CAVOK 33/18 Q1009 NOSIG

TAF TAF HECA
Valide du 20 à 12h jusqu'au 21 à 18h UTC


201100Z 2012/2118 03016KT CAVOK
TEMPO 2100/2107 VRB04KT 2000 BR NSC



MET'MAP, la Météo Aéronautique d'un coup d'oeil ! - Copyright ORBIFLY Décembre 2007 - Disclaimer

ORBIFLY MET'MAP TEAM :

Programmation & Développement : Alexandra Zaïnal
Sur une idée originale de : Baudouin d'Aumeries
Assistance à la programmation : Marc-Olivier Méhu
Soutien technique & logistique : Manuel Goepfert

Contact : metmap@orbifly.com




SOURCES & CREDITS :

   NOAA